C/2014 M2 ( Christensen )

Japanese version
Home page
Updated on November 3, 2015

---------------------------------------------------------------------

* Profile

Discovery Date June 25, 2014
Magnitude 19.4 mag
Discoverer E. J. Christensen (Mount Lemmon)

* Pictures

* Orbital Elements

Epoch 2014 July 2.0 TT = JDT 2456840.5
T 2014 July 18.30937 TT                                 MPCW
q   6.9090293            (2000.0)            P               Q
z  +0.0010188      Peri.   40.72500     +0.18422997     +0.85373337
 +/-0.0000102      Node   245.33059     -0.98187174     +0.13738399
e   0.9929607      Incl.   32.40806     -0.04457815     +0.50225986
From 51 observations 2014 June 25-2015 Sept. 10, mean residual 0".7.

* Magnitudes Graph

        m1 = 7.5 + 5 log d + 10.0 log r

---------------------------------------------------------------------

The orbital elements are published on M.P.E.C. 2015-S97.
The magnitudes graphs are made with Comet for Windows.

---------------------------------------------------------------------

Copyright(C) Seiichi Yoshida (comet@aerith.net). All rights reserved.